When you browse on this site, cookies collect data to enhance your experience and personalize the content and advertising you see.
Visit our Privacy Policy to learn more. By continuing to use the site, you agree to this use of cookies and data.
  • In Schweiz
  • Länderverzeichnis
  • Für 7 Tage
  • Wassertemperatur
  • Satellitenkarten
  • Wetterkarte
  • Widgets
  • user-avatar
    Anmelden

    Stündliche Wetter Ondjiwa

    Heute, 18 Juni, Dienstag

    Zeit Temperatur Niederschläge Wind Luftdruck Luftfeuchtigkeit
    00:00 +14°C° 0 mm 2 m/S 670 mmHg 46%
    01:00 +14°C° 0 mm 2 m/S 669 mmHg 49%
    02:00 +12°C° 0 mm 3 m/S 669 mmHg 51%
    03:00 +12°C° 0 mm 3 m/S 669 mmHg 54%
    04:00 +12°C° 0 mm 3 m/S 669 mmHg 56%
    05:00 +11°C° 0 mm 3 m/S 670 mmHg 57%
    06:00 +11°C° 0 mm 3 m/S 670 mmHg 59%
    07:00 +11°C° 0 mm 3 m/S 671 mmHg 60%
    08:00 +15°C° 0 mm 4 m/S 672 mmHg 49%
    09:00 +20°C° 0 mm 5 m/S 673 mmHg 39%
    10:00 +25°C° 0 mm 5 m/S 673 mmHg 28%
    11:00 +26°C° 0 mm 5 m/S 673 mmHg 26%
    12:00 +28°C° 0 mm 5 m/S 672 mmHg 23%
    13:00 +29°C° 0 mm 4 m/S 672 mmHg 20%
    14:00 +29°C° 0 mm 4 m/S 671 mmHg 20%
    15:00 +29°C° 0 mm 4 m/S 671 mmHg 20%
    16:00 +29°C° 0 mm 4 m/S 670 mmHg 21%
    17:00 +26°C° 0 mm 3 m/S 670 mmHg 25%
    18:00 +22°C° 0 mm 3 m/S 670 mmHg 30%
    19:00 +19°C° 0 mm 2 m/S 670 mmHg 35%
    20:00 +18°C° 0 mm 2 m/S 670 mmHg 37%
    21:00 +17°C° 0 mm 2 m/S 670 mmHg 39%
    22:00 +16°C° 0 mm 2 m/S 670 mmHg 41%
    23:00 +15°C° 0 mm 2 m/S 670 mmHg 43%

    Morgen, 19 Juni, Mittwoch

    Zeit Temperatur Niederschläge Wind Luftdruck Luftfeuchtigkeit
    00:00 +14°C° 0 mm 2 m/S 670 mmHg 46%
    01:00 +13°C° 0 mm 2 m/S 670 mmHg 48%
    02:00 +12°C° 0 mm 3 m/S 670 mmHg 50%
    03:00 +11°C° 0 mm 3 m/S 670 mmHg 52%
    04:00 +10°C° 0 mm 3 m/S 670 mmHg 54%
    05:00 +10°C° 0 mm 3 m/S 670 mmHg 54%
    06:00 +10°C° 0 mm 3 m/S 670 mmHg 55%
    07:00 +9°C° 0 mm 3 m/S 671 mmHg 56%
    08:00 +13°C° 0 mm 4 m/S 672 mmHg 45%
    09:00 +19°C° 0 mm 5 m/S 672 mmHg 35%
    10:00 +23°C° 0 mm 6 m/S 673 mmHg 24%
    11:00 +26°C° 0 mm 6 m/S 673 mmHg 21%
    12:00 +27°C° 0 mm 5 m/S 672 mmHg 19%
    13:00 +29°C° 0 mm 5 m/S 672 mmHg 16%
    14:00 +29°C° 0 mm 4 m/S 671 mmHg 16%
    15:00 +29°C° 0 mm 4 m/S 671 mmHg 16%
    16:00 +29°C° 0 mm 3 m/S 671 mmHg 17%
    17:00 +26°C° 0 mm 3 m/S 670 mmHg 21%
    18:00 +23°C° 0 mm 2 m/S 670 mmHg 26%
    19:00 +19°C° 0 mm 2 m/S 670 mmHg 31%
    20:00 +18°C° 0 mm 2 m/S 670 mmHg 33%
    21:00 +17°C° 0 mm 2 m/S 670 mmHg 35%
    22:00 +16°C° 0 mm 2 m/S 670 mmHg 37%
    23:00 +15°C° 0 mm 2 m/S 670 mmHg 39%

    übermorgen, 20 Juni, Donnerstag

    Zeit Temperatur Niederschläge Wind Luftdruck Luftfeuchtigkeit
    00:00 +14°C° 0 mm 2 m/S 670 mmHg 41%
    01:00 +13°C° 0 mm 2 m/S 670 mmHg 43%
    02:00 +12°C° 0 mm 2 m/S 670 mmHg 45%
    03:00 +12°C° 0 mm 2 m/S 669 mmHg 48%
    04:00 +10°C° 0 mm 2 m/S 669 mmHg 51%
    05:00 +10°C° 0 mm 2 m/S 670 mmHg 52%
    06:00 +9°C° 0 mm 2 m/S 670 mmHg 53%
    07:00 +9°C° 0 mm 2 m/S 671 mmHg 54%
    08:00 +14°C° 0 mm 3 m/S 672 mmHg 45%
    09:00 +19°C° 0 mm 4 m/S 672 mmHg 35%
    10:00 +23°C° 0 mm 4 m/S 673 mmHg 26%
    11:00 +26°C° 0 mm 4 m/S 673 mmHg 23%
    12:00 +27°C° 0 mm 4 m/S 672 mmHg 21%
    13:00 +29°C° 0 mm 4 m/S 672 mmHg 18%
    14:00 +29°C° 0 mm 4 m/S 671 mmHg 18%
    15:00 +29°C° 0 mm 3 m/S 671 mmHg 18%
    16:00 +29°C° 0 mm 3 m/S 671 mmHg 17%
    17:00 +26°C° 0 mm 2 m/S 670 mmHg 22%
    18:00 +23°C° 0 mm 2 m/S 670 mmHg 27%
    19:00 +19°C° 0 mm 2 m/S 670 mmHg 32%
    20:00 +18°C° 0 mm 2 m/S 670 mmHg 35%
    21:00 +17°C° 0 mm 2 m/S 670 mmHg 38%
    22:00 +16°C° 0 mm 2 m/S 671 mmHg 41%
    23:00 +15°C° 0 mm 2 m/S 670 mmHg 43%

    21 Juni, Freitag

    Zeit Temperatur Niederschläge Wind Luftdruck Luftfeuchtigkeit
    00:00 +15°C° 0 mm 2 m/S 670 mmHg 45%
    01:00 +14°C° 0 mm 2 m/S 670 mmHg 47%
    02:00 +13°C° 0 mm 2 m/S 670 mmHg 49%
    03:00 +13°C° 0 mm 2 m/S 670 mmHg 51%
    04:00 +12°C° 0 mm 2 m/S 669 mmHg 53%
    05:00 +12°C° 0 mm 2 m/S 670 mmHg 54%
    06:00 +10°C° 0 mm 3 m/S 670 mmHg 54%
    07:00 +10°C° 0 mm 3 m/S 671 mmHg 55%
    08:00 +14°C° 0 mm 3 m/S 671 mmHg 44%
    09:00 +19°C° 0 mm 4 m/S 672 mmHg 34%
    10:00 +23°C° 0 mm 5 m/S 673 mmHg 23%
    11:00 +26°C° 0 mm 5 m/S 673 mmHg 20%
    12:00 +28°C° 0 mm 4 m/S 672 mmHg 18%
    13:00 +30°C° 0 mm 4 m/S 672 mmHg 15%
    14:00 +30°C° 0 mm 4 m/S 671 mmHg 14%
    15:00 +30°C° 0 mm 4 m/S 670 mmHg 14%
    16:00 +30°C° 0 mm 3 m/S 670 mmHg 14%
    17:00 +26°C° 0 mm 3 m/S 670 mmHg 17%
    18:00 +23°C° 0 mm 2 m/S 669 mmHg 20%
    19:00 +19°C° 0 mm 2 m/S 669 mmHg 23%
    20:00 +18°C° 0 mm 2 m/S 669 mmHg 25%
    21:00 +16°C° 0 mm 2 m/S 669 mmHg 26%
    22:00 +15°C° 0 mm 2 m/S 669 mmHg 27%
    23:00 +14°C° 0 mm 2 m/S 669 mmHg 28%

    22 Juni, Samstag

    Zeit Temperatur Niederschläge Wind Luftdruck Luftfeuchtigkeit
    00:00 +14°C° 0 mm 2 m/S 669 mmHg 29%
    01:00 +13°C° 0 mm 2 m/S 669 mmHg 30%
    02:00 +11°C° 0 mm 3 m/S 668 mmHg 32%
    03:00 +10°C° 0 mm 3 m/S 668 mmHg 33%
    04:00 +10°C° 0 mm 3 m/S 668 mmHg 34%
    05:00 +9°C° 0 mm 3 m/S 669 mmHg 35%
    06:00 +9°C° 0 mm 3 m/S 669 mmHg 36%
    07:00 +8°C° 0 mm 3 m/S 669 mmHg 37%
    08:00 +13°C° 0 mm 3 m/S 670 mmHg 30%
    09:00 +18°C° 0 mm 4 m/S 671 mmHg 23%
    10:00 +22°C° 0 mm 5 m/S 672 mmHg 17%
    11:00 +25°C° 0 mm 4 m/S 672 mmHg 15%
    12:00 +27°C° 0 mm 3 m/S 671 mmHg 12%
    13:00 +29°C° 0 mm 3 m/S 671 mmHg 10%
    14:00 +30°C° 0 mm 3 m/S 670 mmHg 10%
    15:00 +30°C° 0 mm 2 m/S 670 mmHg 9%
    16:00 +30°C° 0 mm 2 m/S 669 mmHg 9%
    17:00 +26°C° 0 mm 2 m/S 669 mmHg 12%
    18:00 +23°C° 0 mm 2 m/S 668 mmHg 14%
    19:00 +19°C° 0 mm 1 m/S 668 mmHg 17%
    20:00 +16°C° 0 mm 1 m/S 668 mmHg 19%
    21:00 +15°C° 0 mm 1 m/S 668 mmHg 21%
    22:00 +14°C° 0 mm 1 m/S 668 mmHg 22%
    23:00 +13°C° 0 mm 2 m/S 668 mmHg 23%

    23 Juni, Sonntag

    Zeit Temperatur Niederschläge Wind Luftdruck Luftfeuchtigkeit
    00:00 +13°C° 0 mm 2 m/S 668 mmHg 24%
    01:00 +12°C° 0 mm 2 m/S 668 mmHg 25%
    02:00 +12°C° 0 mm 2 m/S 668 mmHg 27%
    03:00 +10°C° 0 mm 2 m/S 668 mmHg 28%
    04:00 +10°C° 0 mm 2 m/S 668 mmHg 30%
    05:00 +9°C° 0 mm 2 m/S 668 mmHg 32%
    06:00 +8°C° 0 mm 2 m/S 668 mmHg 35%
    07:00 +8°C° 0 mm 2 m/S 669 mmHg 37%
    08:00 +13°C° 0 mm 2 m/S 670 mmHg 30%
    09:00 +18°C° 0 mm 3 m/S 671 mmHg 24%
    10:00 +22°C° 0 mm 3 m/S 672 mmHg 18%
    11:00 +25°C° 0 mm 3 m/S 671 mmHg 16%
    12:00 +27°C° 0 mm 3 m/S 671 mmHg 13%
    13:00 +29°C° 0 mm 2 m/S 670 mmHg 11%
    14:00 +29°C° 0 mm 2 m/S 670 mmHg 11%
    15:00 +29°C° 0 mm 1 m/S 670 mmHg 10%
    16:00 +28°C° 0 mm 0 m/S 669 mmHg 10%
    17:00 +26°C° 0 mm 1 m/S 669 mmHg 13%
    18:00 +23°C° 0 mm 1 m/S 668 mmHg 16%
    19:00 +19°C° 0 mm 1 m/S 668 mmHg 20%
    20:00 +17°C° 0 mm 2 m/S 668 mmHg 21%
    21:00 +16°C° 0 mm 2 m/S 668 mmHg 23%
    22:00 +15°C° 0 mm 2 m/S 668 mmHg 24%
    23:00 +15°C° 0 mm 2 m/S 668 mmHg 26%
    Mehr zeigen